Onweer radar Meer informatie blitzortung!


Regen radar Meer informatie rain snow radar


Bezoek onze andere website:

Template documentation
and downloads

And another site



15 daagse weersverwachting Erfurt (DE)

  • Overzicht
  • Per uur
  • 15 dagen
  • Extra
  • Vergelijk
  • Kaarten
  • Dagkaart
  • Meer »
  • Info
  • Statistieken
  • Directe link
    Temp 6h Neerslag Wind  
 05:44     21:01    Daglengte: 15:17 Vandaag
02:00
15°
 
2
08:00
15°
 
1
14:00
21°
 
2
20:00
20°
 
3
 05:46     21:00    Daglengte: 15:14 Morgen
02:00
16°
 
3
08:00
15°
 
3
14:00
19°
1.9 mm
4
20:00
18°
5.1 mm
2
 05:47     20:58    Daglengte: 15:11 Dinsdag 03 Aug
02:00
14°
4.4 mm
2
08:00
15°
4.2 mm
1
14:00
21°
11.9 mm
1
20:00
18°
28.3 mm
1
Locatie info
Region: Thüringen
Latitude: 50.9777°N
Longitude: 11.0232°E
195 masl
Postcode: 99084
Temp/Neerslag /Baro Onweer/Dauwpunt
    Temp Baro 1h Neerslag Dauwpunt Wind UV Bewolking  
 05:44     21:01    Daglengte: 15:17 Vandaag
01:00
15°
1010.0 hPa   11.5°
2
Windvlaag: 4.1 m/s
17%
02:00
15°
1010.0 hPa   11.5°
2
Windvlaag: 2.5 m/s
17%
03:00
15°
1010.0 hPa   11.1°
2
Windvlaag: 2.8 m/s
48%
04:00
14°
1009.5 hPa   11.0°
2
Windvlaag: 2.5 m/s
51%
05:00
14°
1008.9 hPa   11.3°
1
Windvlaag: 2.2 m/s
63%
06:00
14°
1009.4 hPa   11.3°
2
Windvlaag: 1.6 m/s
66%
07:00
14°
1009.2 hPa   11.5°
1
Windvlaag: 0.8 m/s
53%
08:00
15°
1009.3 hPa   11.8°
1
Windvlaag: 0.8 m/s
50%
09:00
16°
1009.3 hPa
11%
12.8°
2
Windvlaag: -0.4 m/s
49%
10:00
17°
1009.3 hPa
12%
13.2°
2
Windvlaag: -1.2 m/s
34%
11:00
18°
1009.1 hPa
12%
13.5°
2
Windvlaag: -1.7 m/s
55%
12:00
19°
1008.9 hPa
13%
13.6°
2
Windvlaag: -0.5 m/s
55%
13:00
20°
1008.7 hPa
13%
13.0°
2
Windvlaag: -0.5 m/s
74%
14:00
21°
1008.4 hPa
14%
12.3°
2
Windvlaag: -0.5 m/s
74%
15:00
21°
1008.1 hPa
14%
13.0°
3
Windvlaag: 1.5 m/s
73%
16:00
21°
1007.9 hPa
14%
13.4°
4
Windvlaag: 1.6 m/s
73%
17:00
21°
1008.0 hPa
14%
12.6°
4
Windvlaag: 1.5 m/s
74%
18:00
20°
1008.1 hPa
14%
13.8°
4
Windvlaag: 1.5 m/s
56%
19:00
20°
1008.1 hPa
14%
12.6°
3
Windvlaag: 0.9 m/s
37%
20:00
20°
1008.3 hPa
14%
12.0°
3
Windvlaag: 1 m/s
31%
21:00
18°
1008.7 hPa
14%
12.0°
3
Windvlaag: 2.4 m/s
51%
22:00
18°
1009.1 hPa
14%
12.0°
3
Windvlaag: 3.8 m/s
31%
23:00
17°
1009.4 hPa
54%
11.6°
3
Windvlaag: 2.2 m/s
80%
 05:46     21:00    Daglengte: 15:14 Morgen
00:00
17°
1009.7 hPa
69%
12.7°
3
Windvlaag: 0.5 m/s
57%
01:00
16°
1009.9 hPa
18%
12.7°
3
Windvlaag: -0.1 m/s
17%
02:00
16°
1010.1 hPa
14%
12.8°
3
Windvlaag: 0.8 m/s
11%
03:00
15°
1010.3 hPa
14%
12.8°
2
Windvlaag: 2 m/s
12%
04:00
15°
1010.6 hPa
17%
12.8°
3
Windvlaag: 2.9 m/s
15%
05:00
14°
1010.6 hPa
14%
12.9°
3
Windvlaag: 2.8 m/s
20%
06:00
14°
1011.1 hPa
14%
12.7°
3
Windvlaag: 3.1 m/s
49%
07:00
15°
1011.4 hPa
17%
13.0°
3
Windvlaag: 3 m/s
71%
08:00
15°
1011.9 hPa
60%
12.9°
3
Windvlaag: 2.2 m/s
71%
09:00
15°
1012.2 hPa
82%
13.0°
3
Windvlaag: 1.3 m/s
63%
10:00
16°
1012.5 hPa 0.9 mm
82%
13.4°
3
Windvlaag: 0.2 m/s
61%
11:00
17°
1012.7 hPa 1.0 mm
82%
13.1°
3
Windvlaag: 0 m/s
53%
12:00
18°
1012.8 hPa
82%
12.7°
4
Windvlaag: 0.4 m/s
51%
13:00
19°
1012.8 hPa
80%
11.8°
4
Windvlaag: -0.2 m/s
65%
14:00
19°
1012.6 hPa
77%
10.7°
4
Windvlaag: -0.1 m/s
45%
15:00
20°
1012.5 hPa
37%
10.0°
4
Windvlaag: 3 m/s
23%
16:00
20°
1012.4 hPa 1.1 mm
82%
9.5°
4
Windvlaag: 2.7 m/s
59%
17:00
19°
1012.5 hPa 1.5 mm
100%
8.6°
3
Windvlaag: 2.5 m/s
56%
18:00
19°
1012.6 hPa 1.5 mm
100%
9.4°
3
Windvlaag: 1.3 m/s
86%
19:00
19°
1012.8 hPa 1.1 mm
99%
9.4°
3
Windvlaag: 1.1 m/s
37%
20:00
18°
1013.0 hPa
91%
10.4°
2
Windvlaag: 0.7 m/s
24%
21:00
16°
1013.4 hPa 2.3 mm
24%
14.8°
2
Windvlaag: 0.9 m/s
33%
22:00
16°
1013.7 hPa 2.1 mm
21%
13.9°
1
Windvlaag: 1.6 m/s
31%
23:00
15°
1014.1 hPa
21%
13.2°
1
Windvlaag: 1.8 m/s
36%
 05:47     20:58    Daglengte: 15:11 Dinsdag 03 Aug
00:00
14°
1014.4 hPa
21%
12.5°
2
Windvlaag: 1.9 m/s
27%
01:00
14°
1014.3 hPa
21%
11.9°
2
Windvlaag: 1.8 m/s
30%
02:00
14°
1014.3 hPa
21%
12.3°
2
Windvlaag: 2.7 m/s
40%
03:00
14°
1014.1 hPa
21%
12.9°
2
Windvlaag: 2.4 m/s
39%
04:00
13°
1014.1 hPa
21%
11.6°
2
Windvlaag: 2.8 m/s
81%
05:00
13°
1013.9 hPa 4.2 mm
21%
11.8°
1
Windvlaag: 2.9 m/s
58%
06:00
12°
1014.1 hPa
21%
11.7°
2
Windvlaag: 2.4 m/s
65%
07:00
13°
1014.3 hPa
21%
12.0°
2
Windvlaag: 2 m/s
74%
08:00
15°
1014.4 hPa
21%
12.0°
1
Windvlaag: 2.5 m/s
73%
09:00
17°
1014.3 hPa
21%
12.3°
1
Windvlaag: 3.1 m/s
56%
10:00
18°
1014.3 hPa
22%
12.6°
1
Windvlaag: 2.7 m/s
61%
11:00
19°
1013.9 hPa 3.9 mm
73%
13.7°
2
Windvlaag: -3.2 m/s
74%
12:00
20°
1013.7 hPa 4.2 mm
95%
13.6°
2
Windvlaag: -3.3 m/s
88%
13:00
21°
1013.3 hPa 3.9 mm
90%
13.3°
1
Windvlaag: -3.1 m/s
79%
14:00
21°
1012.7 hPa
30%
13.8°
1
Windvlaag: -2.8 m/s
88%
15:00
21°
1012.5 hPa
89%
18.6°
2
Windvlaag: 7.1 m/s
66%
16:00
20°
1012.3 hPa 5.5 mm
100%
15.9°
1
Windvlaag: 3.6 m/s
96%
17:00
19°
1012.3 hPa 5.8 mm
100%
12.9°
2
Windvlaag: 2.9 m/s
92%
18:00
19°
1011.9 hPa 5.5 mm
100%
13.1°
1
Windvlaag: 4.2 m/s
94%
19:00
18°
1012.2 hPa 5.8 mm
100%
13.5°
2
Windvlaag: 6.3 m/s
84%
20:00
18°
1012.5 hPa 5.7 mm
100%
13.6°
1
Windvlaag: 3.1 m/s
87%
21:00
16°
1009.8 hPa 16.7 mm
100%
13.3°
1
Windvlaag: 1.7 m/s
91%
22:00
16°
1009.9 hPa 16.7 mm
100%
13.1°
2
Windvlaag: 4 m/s
96%
23:00
16°
1010.5 hPa 16.8 mm
100%
13.6°
1
Windvlaag: 1.6 m/s
99%
 05:49     20:56    Daglengte: 15:07 Woensdag 04 Aug
00:00
15°
1010.4 hPa 16.8 mm
100%
13.2°
1
Windvlaag: 0.8 m/s
93%
Temp/Neerslag /Baro Onweer/Dauwpunt
    Temp Baro Neerslag Dauwpunt Wind Bewolking  
 05:44     21:01    Daglengte: 15:17 Vandaag
02:00
15°
1010.0 hPa   11.5°
2
17%
05:00
14°
1008.9 hPa   11.3°
1
63%
08:00
15°
1009.3 hPa   11.8°
1
50%
11:00
18°
1009.1 hPa   13.5°
2
55%
14:00
21°
1008.4 hPa   12.3°
2
74%
17:00
21°
1008.0 hPa   12.6°
4
74%
20:00
20°
1008.3 hPa   12.0°
3
31%
23:00
17°
1009.4 hPa   11.6°
3
80%
 05:46     21:00    Daglengte: 15:14 Morgen
02:00
16°
1010.1 hPa   12.8°
3
11%
05:00
14°
1010.6 hPa   12.9°
3
20%
08:00
15°
1011.9 hPa   12.9°
3
71%
11:00
17°
1012.7 hPa 1.9 mm 13.1°
3
53%
14:00
19°
1012.6 hPa   10.7°
4
45%
17:00
19°
1012.5 hPa 2.6 mm 8.6°
3
56%
20:00
18°
1013.0 hPa 2.5 mm 10.4°
2
24%
23:00
15°
1014.1 hPa 4.4 mm 13.2°
1
36%
 05:47     20:58    Daglengte: 15:11 Dinsdag 03 Aug
02:00
14°
1014.3 hPa   12.3°
2
40%
05:00
13°
1013.9 hPa 4.2 mm 11.8°
1
58%
08:00
15°
1014.4 hPa   12.0°
1
73%
11:00
19°
1013.9 hPa 3.9 mm 13.7°
2
74%
14:00
21°
1012.7 hPa 8.1 mm 13.8°
1
88%
17:00
19°
1012.3 hPa 11.4 mm 12.9°
2
92%
20:00
18°
1012.5 hPa 17.0 mm 13.6°
1
87%
23:00
16°
1010.5 hPa 50.2 mm 13.6°
1
99%
 05:49     20:56    Daglengte: 15:07 Woensdag 04 Aug
02:00
13°
1010.7 hPa 50.5 mm 12.1°
1
96%
05:00
12°
1012.8 hPa 9.5 mm 10.8°
2
0%
08:00
14°
1013.4 hPa 9.5 mm 12.0°
1
1%
11:00
17°
1013.7 hPa 9.6 mm 12.9°
2
1%
14:00
20°
1012.6 hPa 9.7 mm 12.6°
2
1%
17:00
17°
1013.3 hPa 10.6 mm 13.7°
4
1%
20:00
17°
1013.3 hPa 10.7 mm 13.1°
3
1%
23:00
13°
1014.1 hPa 10.7 mm 11.0°
3
0%
 05:50     20:54    Daglengte: 15:04 Donderdag 05 Aug
02:00
15°
1013.5 hPa 10.7 mm 11.8°
4
1%
05:00
14°
1013.0 hPa 10.7 mm 11.4°
4
1%
08:00
14°
1013.3 hPa 10.8 mm 11.5°
4
1%
11:00
15°
1012.8 hPa 11.0 mm 12.0°
3
1%
14:00
18°
1011.3 hPa 11.8 mm 12.0°
4
1%
17:00
20°
1009.3 hPa 12.1 mm 11.1°
3
0%
20:00
17°
1008.8 hPa 13.3 mm 12.6°
4
1%
23:00
14°
1008.7 hPa 13.4 mm 11.4°
3
1%
 05:52     20:53    Daglengte: 15:01 Vrijdag 06 Aug
02:00
13°
1008.3 hPa 13.4 mm 11.1°
3
1%
05:00
14°
1006.9 hPa 13.5 mm 11.7°
3
1%
08:00
14°
1006.4 hPa 14.1 mm 12.0°
5
1%
11:00
16°
1006.4 hPa 14.5 mm 13.0°
6
1%
14:00
17°
1006.2 hPa 15.2 mm 12.6°
6
1%
17:00
18°
1006.0 hPa 16.1 mm 12.7°
8
1%
20:00
16°
1006.8 hPa 16.3 mm 12.5°
7
1%
23:00
16°
1007.8 hPa 16.4 mm 12.0°
7
1%
 05:53     20:51    Daglengte: 14:58 Zaterdag 07 Aug
02:00
16°
1008.2 hPa 16.4 mm 12.4°
7
1%
05:00
14°
1009.1 hPa 16.4 mm 11.9°
7
1%
08:00
15°
1009.8 hPa 16.4 mm 11.7°
6
1%
11:00
19°
1010.6 hPa 16.4 mm 12.1°
7
1%
14:00
21°
1010.7 hPa 16.4 mm 11.4°
6
1%
17:00
22°
1010.8 hPa 16.4 mm 11.7°
5
1%
20:00
19°
1011.6 hPa 16.6 mm 13.9°
3
1%
23:00
16°
1013.0 hPa   12.6°
2
0%
 05:55     20:49    Daglengte: 14:54 Zondag 08 Aug
02:00
15°
1012.8 hPa 33.1 mm 11.6°
2
1%
08:00
18°
1011.8 hPa 33.1 mm 12.8°
2
1%
14:00
22°
1012.6 hPa 33.2 mm 17.0°
4
1%
20:00
21°
1014.3 hPa 33.7 mm 16.3°
5
1%
 05:56     20:47    Daglengte: 14:51 Maandag 09 Aug
02:00
16°
1017.1 hPa 34.9 mm 12.0°
5
1%
08:00
17°
1018.5 hPa 34.9 mm 11.8°
6
0%
14:00
22°
1019.7 hPa 34.9 mm 9.9°
8
0%
20:00
18°
1021.0 hPa 35.1 mm 12.2°
5
1%
 05:58     20:46    Daglengte: 14:48 Dinsdag 10 Aug
02:00
15°
1022.7 hPa 35.1 mm 12.0°
5
1%
08:00
15°
1022.8 hPa 35.1 mm 11.2°
5
1%
14:00
20°
1022.3 hPa 35.3 mm 9.9°
5
1%
20:00
19°
1018.6 hPa 1.2 mm 13.7°
2
44%
 05:59     20:44    Daglengte: 14:45 Woensdag 11 Aug
02:00
14°
1019.9 hPa 0.8 mm 12.0°
2
43%
08:00
16°
1020.2 hPa 0.4 mm 12.8°
2
50%
14:00
22°
1019.2 hPa 0.4 mm 12.8°
2
47%
20:00
19°
1018.5 hPa 1.2 mm 13.0°
1
49%
 06:01     20:42    Daglengte: 14:41 Donderdag 12 Aug
02:00
14°
1019.6 hPa 0.2 mm 11.3°
1
43%
08:00
15°
1019.8 hPa 0.1 mm 12.0°
1
42%
14:00
22°
1019.0 hPa 0.8 mm 12.7°
2
56%
20:00
19°
1018.5 hPa 0.6 mm 13.3°
1
56%
 06:02     20:40    Daglengte: 14:38 Vrijdag 13 Aug
02:00
15°
1019.3 hPa 0.3 mm 11.8°
2
46%
08:00
16°
1019.4 hPa 0.5 mm 12.5°
2
53%
14:00
23°
1018.8 hPa 0.6 mm 13.4°
2
51%
20:00
19°
1017.8 hPa 0.9 mm 13.9°
2
56%
 06:04     20:38    Daglengte: 14:34 Zaterdag 14 Aug
02:00
15°
1018.7 hPa 0.7 mm 12.1°
2
53%
08:00
16°
1018.8 hPa 0.5 mm 12.9°
2
51%
14:00
22°
1017.9 hPa 0.4 mm 13.5°
2
59%
20:00
19°
1017.2 hPa 0.7 mm 13.9°
2
62%
 06:05     20:36    Daglengte: 14:31 Zondag 15 Aug
02:00
15°
1018.0 hPa 0.5 mm 12.4°
2
58%
08:00
16°
1017.7 hPa 0.9 mm 12.9°
2
55%
14:00
21°
1016.7 hPa 0.7 mm 13.4°
2
61%
20:00
19°
1016.0 hPa 0.2 mm 13.8°
2
58%
  CAPE Lifted Index Hail Supercell Tornado SRH 3km CL BTM PRES CL TOP PRES Swiss DWD icon SMHI TS
 05:44     21:01    Daglengte: 15:17 Vandaag
01:00 0 J/kg 2.2 K 0 % 0 % 0 % 0 m²/s² 0 0 5.05 2
02:00 0 J/kg 2.6 K 0 % 0 % 0 % 0 m²/s² 0 0 5 1
03:00 0 J/kg 2.5 K 0 % 0 % 0 % 0 m²/s² 0 0 4.9 3
04:00 0 J/kg 2.1 K 0 % 0 % 0 % 0 m²/s² 0 0 4.59 3
05:00 0 J/kg 2.4 K 0 % 0 % 0 % 0 m²/s² 0 0 4.89 3
06:00 0 J/kg 2.4 K 0 % 0 % 0 % 0 m²/s² 0 0 4.38 3
07:00 0 J/kg 2.7 K 0 % 0 % 0 % 0 m²/s² 0 0 4.5 3
08:00 0 J/kg 3.4 K 0 % 0 % 0 % 0 m²/s² 0 0 4.78 3
09:00 0 J/kg 3.3 K 0 % 0 % 0 % 0 m²/s² 0 0 4.59 3
10:00 31 J/kg 3.6 K 0 % 0 % 0 % 0 m²/s² 0 0 4.68 3
11:00 61 J/kg 3.1 K 0 % 0 % 0 % 0 m²/s² 0 0 4.12 3
12:00 77 J/kg 2.6 K 0 % 0 % 0 % 0 m²/s² 0 0 3.89 3
13:00 101 J/kg 2.0 K 0 % 0 % 0 % 0 m²/s² 0 0 2.87 3
14:00 102 J/kg 1.6 K 0 % 0 % 0 % 0 m²/s² 0 0 1.93 3
15:00 137 J/kg 1.1 K 0 % 0 % 0 % 0 m²/s² 0 0 1.34 3
16:00 215 J/kg 0.2 K 0 % 0 % 0 % 0 m²/s² 0 0 1.31 3
17:00 361 J/kg -1.0 K 0 % 0 % 0 % 0 m²/s² 0 0 0.56 3
18:00 510 J/kg -1.8 K 0 % 0 % 0 % 0 m²/s² 0 0 -0.06 3
19:00 620 J/kg -2.6 K 0 % 0 % 0 % 0 m²/s² 0 0 -1.16 3
20:00 733 J/kg -3.0 K 0 % 0 % 0 % 0 m²/s² 0 0 -1.92 3
21:00 532 J/kg -2.5 K 0 % 0 % 0 % 0 m²/s² 0 0 -1.39 3
22:00 505 J/kg -3.2 K 0 % 0 % 0 % 0 m²/s² 0 0 -2.24 3
23:00 466 J/kg -3.3 K 0 % 0 % 0 % 0 m²/s² 0 0 -2.07 3
 05:46     21:00    Daglengte: 15:14 Morgen
00:00 431 J/kg -2.4 K 0 % 0 % 0 % 0 m²/s² 0 0 -1.29 3
01:00 393 J/kg -2.1 K 0 % 0 % 0 % 0 m²/s² 0 0 0.06 3
02:00 207 J/kg -1.1 K 0 % 0 % 0 % 0 m²/s² 0 0 1.12 2
03:00 101 J/kg -1.3 K 0 % 0 % 0 % 0 m²/s² 0 0 0.53 2
04:00 41 J/kg -0.8 K 0 % 0 % 0 % 0 m²/s² 0 0 1.57 2
05:00 0 J/kg 0.2 K 0 % 0 % 0 % 0 m²/s² 0 0 1.46 2
06:00 0 J/kg 0.2 K 0 % 0 % 0 % 0 m²/s² 0 0 0.71 3
07:00 0 J/kg 0.4 K 0 % 0 % 0 % 0 m²/s² 0 0 0.64 3
08:00 5 J/kg 1.2 K 0 % 0 % 0 % 0 m²/s² 0 0 1.92 3
09:00 75 J/kg 1.2 K 0 % 0 % 0 % 0 m²/s² 0 0 1.65 3
10:00 57 J/kg 1.3 K 0 % 0 % 0 % 0 m²/s² 0 0 1.69 80
11:00 84 J/kg 1.1 K 0 % 0 % 0 % 0 m²/s² 0 0 2.12 3
12:00 209 J/kg 0.3 K 0 % 0 % 0 % 0 m²/s² 0 0 4.26 3
13:00 118 J/kg 0.9 K 0 % 0 % 0 % 0 m²/s² 0 0 6.42 3
14:00 117 J/kg 0.8 K 0 % 0 % 0 % 0 m²/s² 0 0 5.42 3
15:00 149 J/kg 0.5 K 0 % 0 % 0 % 0 m²/s² 0 0 4.07 3
16:00 204 J/kg -0.3 K 0 % 0 % 0 % 0 m²/s² 0 0 0.72 3
17:00 199 J/kg -0.5 K 0 % 0 % 0 % 0 m²/s² 0 0 0.61 80
18:00 190 J/kg -0.7 K 0 % 0 % 0 % 0 m²/s² 0 0 0.59 80
19:00 147 J/kg -0.7 K 0 % 0 % 0 % 0 m²/s² 0 0 0.41 80
20:00 78 J/kg -0.7 K 0 % 0 % 0 % 0 m²/s² 0 0 -0.28 2
21:00 103 J/kg -0.2 K 0 % 0 % 0 % 0 m²/s² 0 0 1.3 2
22:00 46 J/kg -0.1 K 0 % 0 % 0 % 0 m²/s² 0 0 1.28 2
23:00 35 J/kg 0.1 K 0 % 0 % 0 % 0 m²/s² 0 0 1.72 1
 05:47     20:58    Daglengte: 15:11 Dinsdag 03 Aug
00:00 0 J/kg -0.2 K 0 % 0 % 0 % 0 m²/s² 0 0 1.24 2
01:00 0 J/kg -0.4 K 0 % 0 % 0 % 0 m²/s² 0 0 0.89 1
02:00 14 J/kg -0.3 K 0 % 0 % 0 % 0 m²/s² 0 0 -0.27 2
03:00 3 J/kg 0.7 K 0 % 0 % 0 % 0 m²/s² 0 0 1.63 3
04:00 2 J/kg 0.3 K 0 % 0 % 0 % 0 m²/s² 0 0 1.26 3
05:00 0 J/kg 0.3 K 0 % 0 % 0 % 0 m²/s² 0 0 2.01 3
06:00 0 J/kg 0.1 K 0 % 0 % 0 % 0 m²/s² 0 0 1.6 3
07:00 0 J/kg 0.0 K 0 % 0 % 0 % 0 m²/s² 0 0 1.89 3
08:00 0 J/kg -0.4 K 0 % 0 % 0 % 0 m²/s² 0 0 1.31 3
09:00 34 J/kg 0.0 K 0 % 0 % 0 % 0 m²/s² 0 0 1.5 2
10:00 211 J/kg -0.8 K 0 % 0 % 0 % 0 m²/s² 0 0 0.7 2
11:00 357 J/kg -1.6 K 0 % 0 % 0 % 0 m²/s² 0 0 -0.43 2
12:00 536 J/kg -2.2 K 0 % 0 % 0 % 0 m²/s² 0 0 -0.22 3
13:00 850 J/kg -3.3 K 0 % 0 % 0 % 0 m²/s² 0 0 -1.8 2
14:00 892 J/kg -2.8 K 0 % 0 % 0 % 0 m²/s² 0 0 -1.66 3
15:00 366 J/kg -2.2 K 0 % 0 % 0 % 0 m²/s² 0 0 -1.27 3
16:00 538 J/kg -2.2 K 0 % 0 % 0 % 0 m²/s² 0 0 -1.12 80
17:00 570 J/kg -2.3 K 0 % 0 % 0 % 0 m²/s² 0 0 -1.07 80
18:00 531 J/kg -1.5 K 0 % 0 % 0 % 0 m²/s² 0 0 0.12 3
19:00 2 J/kg 1.0 K 0 % 0 % 0 % 0 m²/s² 0 0 1.78 80
20:00 7 J/kg 0.5 K 0 % 0 % 0 % 0 m²/s² 0 0 1.43 3
21:00 0 J/kg 1.3 K 0 % 0 % 0 % 0 m²/s² 0 0 2.35
22:00 0 J/kg 1.4 K 0 % 0 % 0 % 0 m²/s² 0 0 1.52
23:00 0 J/kg 1.8 K 0 % 0 % 0 % 0 m²/s² 0 0 1.92
 05:49     20:56    Daglengte: 15:07 Woensdag 04 Aug
00:00 0 J/kg 1.8 K 0 % 0 % 0 % 0 m²/s² 0 0 2.19
Temp Baro Wind Neerslag
  EWN Forecast EWN WRFDA DWD ICON FMI HIRLAM MET Norway GFS
 05:44     21:01    Daglengte: 15:17 Vandaag
02:00 14.6° 1010.0 hPa 2.0 m/s 0.0 mm 13.0° 1009.1 hPa 2.9 m/s 0.0 mm 13.5° 1010.5 hPa 1.6 m/s -2.0 mm 14.7° 1010.2 hPa 2.5 m/s 0.0 mm 14.0° 1009.8 hPa 2.6 m/s
05:00 14.0° 1008.9 hPa 1.5 m/s 0.0 mm 12.6° 1007.5 hPa 2.3 m/s 0.0 mm 11.7° 1009.6 hPa 1.3 m/s 0.0 mm 14.3° 1008.9 hPa 1.1 m/s 0.0 mm 12.7° 1009.1 hPa 1.3 m/s
08:00 14.7° 1009.3 hPa 1.4 m/s 0.0 mm 14.9° 1008.3 hPa 0.6 m/s 0.0 mm 14.3° 1009.8 hPa 0.7 m/s 0.0 mm 14.5° 1008.4 hPa 1.7 m/s 0.0 mm 15.1° 1009.5 hPa 2.3 m/s
11:00 18.1° 1009.1 hPa 1.6 m/s 0.0 mm 16.3° 1008.2 hPa 1.2 m/s 0.1 mm 18.6° 1009.6 hPa 2.3 m/s 0.0 mm 16.7° 1008.4 hPa 1.2 m/s 0.0 mm 18.8° 1009.7 hPa 2.8 m/s
14:00 20.8° 1008.4 hPa 2.3 m/s 0.0 mm 18.2° 1007.7 hPa 2.3 m/s 0.3 mm 21.0° 1008.9 hPa 3.8 m/s 0.0 mm 20.8° 1007.9 hPa 2.1 m/s 0.0 mm 20.9° 1008.9 hPa 3.4 m/s
17:00 21.1° 1008.0 hPa 4.2 m/s 0.0 mm 19.9° 1006.9 hPa 2.3 m/s 6.5 mm 21.4° 1008.3 hPa 3.8 m/s 0.0 mm 21.9° 1007.0 hPa 4.7 m/s 0.0 mm 20.1° 1009.0 hPa 3.6 m/s
20:00 19.7° 1008.3 hPa 2.8 m/s 0.0 mm 19.9° 1006.6 hPa 3.0 m/s 6.7 mm 19.8° 1008.6 hPa 2.8 m/s 0.0 mm 20.0° 1007.5 hPa 4.3 m/s 0.0 mm 18.4° 1009.0 hPa 1.9 m/s
23:00 16.7° 1009.4 hPa 2.8 m/s 0.0 mm 16.8° 1007.6 hPa 4.5 m/s 7.1 mm 16.6° 1009.9 hPa 2.6 m/s 0.0 mm 17.9° 1008.6 hPa 4.3 m/s 0.0 mm 15.7° 1010.0 hPa 2.4 m/s
 05:46     21:00    Daglengte: 15:14 Morgen
02:00 15.6° 1010.1 hPa 2.6 m/s 0.0 mm 14.1° 1007.8 hPa 3.3 m/s 9.4 mm 15.1° 1010.8 hPa 2.0 m/s 0.0 mm 16.1° 1008.4 hPa 3.4 m/s 0.0 mm 13.8° 1010.7 hPa 2.3 m/s
05:00 14.5° 1010.6 hPa 2.8 m/s 0.0 mm 12.1° 1008.8 hPa 3.6 m/s 9.7 mm 13.9° 1011.1 hPa 2.7 m/s 0.0 mm 14.9° 1009.2 hPa 3.4 m/s 0.0 mm 12.2° 1011.9 hPa 2.7 m/s
08:00 15.0° 1011.9 hPa 3.5 m/s 0.0 mm 14.3° 1010.3 hPa 3.9 m/s 10.0 mm 15.3° 1012.2 hPa 3.4 m/s 0.0 mm 15.0° 1011.0 hPa 2.8 m/s 0.0 mm 14.5° 1013.3 hPa 3.6 m/s
11:00 16.8° 1012.7 hPa 3.3 m/s 1.9 mm 15.8° 1011.1 hPa 3.0 m/s 11.4 mm 17.4° 1012.9 hPa 4.1 m/s 0.6 mm 15.8° 1012.3 hPa 3.2 m/s 0.0 mm 15.5° 1014.0 hPa 3.7 m/s
14:00 18.9° 1012.6 hPa 4.1 m/s 0.0 mm 20.5° 1011.2 hPa 6.2 m/s 13.3 mm 19.7° 1012.7 hPa 3.9 m/s 0.2 mm 18.6° 1012.5 hPa 5.5 m/s 0.0 mm 19.3° 1013.6 hPa 4.8 m/s
17:00 19.2° 1012.5 hPa 3.2 m/s 2.6 mm 21.6° 1010.9 hPa 5.5 m/s 13.3 mm 18.5° 1013.1 hPa 2.8 m/s 0.9 mm 19.8° 1013.6 hPa 3.8 m/s
20:00 18.2° 1013.0 hPa 2.3 m/s 2.5 mm 19.3° 1011.3 hPa 2.6 m/s 13.3 mm 17.4° 1013.2 hPa 2.7 m/s 0.8 mm 17.6° 1013.9 hPa 1.3 m/s
23:00 14.9° 1014.1 hPa 1.5 m/s 4.4 mm 14.0° 1012.2 hPa 2.2 m/s 17.6 mm 14.8° 1014.3 hPa 1.3 m/s 0.0 mm 13.8° 1014.9 hPa 2.2 m/s
 05:47     20:58    Daglengte: 15:11 Dinsdag 03 Aug
02:00 14.3° 1014.3 hPa 2.0 m/s 0.0 mm 14.7° 1012.9 hPa 4.5 m/s 18.0 mm 12.8° 1014.9 hPa 1.4 m/s 0.0 mm 12.8° 1015.0 hPa 1.7 m/s
05:00 12.6° 1013.9 hPa 1.5 m/s 4.2 mm 12.0° 1011.7 hPa 2.4 m/s 33.8 mm 12.2° 1014.5 hPa 1.1 m/s 0.0 mm 12.2° 1014.4 hPa 1.9 m/s
08:00 14.5° 1014.4 hPa 1.5 m/s 0.0 mm 14.9° 1012.9 hPa 1.8 m/s 33.8 mm 14.6° 1015.0 hPa 1.1 m/s 0.0 mm 15.6° 1014.4 hPa 1.9 m/s
11:00 18.6° 1013.9 hPa 1.7 m/s 3.9 mm 18.5° 1012.0 hPa 1.8 m/s 33.9 mm 19.7° 1014.5 hPa 1.7 m/s 0.0 mm 20.5° 1013.5 hPa 3.3 m/s
14:00 21.1° 1012.7 hPa 1.3 m/s 8.1 mm 21.3° 1009.8 hPa 2.1 m/s 34.3 mm 21.9° 1013.4 hPa 1.1 m/s 0.0 mm 21.9° 1012.1 hPa 3.9 m/s
17:00 19.0° 1012.3 hPa 2.4 m/s 11.4 mm 20.4° 1009.3 hPa 2.8 m/s 45.7 mm 18.7° 1013.0 hPa 2.3 m/s 1.3 mm 20.2° 1012.0 hPa 3.7 m/s
20:00 17.8° 1012.5 hPa 1.3 m/s 17.0 mm 17.4° 1009.4 hPa 2.2 m/s 49.4 mm 17.9° 1013.3 hPa 1.1 m/s 0.7 mm 16.6° 1012.4 hPa 5.0 m/s
23:00 15.9° 1010.5 hPa 0.7 m/s 50.2 mm 15.9° 1010.5 hPa 0.7 m/s 50.2 mm 14.4° 1013.5 hPa 2.2 m/s
 05:49     20:56    Daglengte: 15:07 Woensdag 04 Aug
02:00 12.9° 1010.7 hPa 1.1 m/s 50.5 mm 12.9° 1010.7 hPa 1.1 m/s 50.5 mm 12.3° 1013.9 hPa 2.2 m/s
05:00 11.8° 1012.8 hPa 2.0 m/s 9.5 mm 11.8° 1012.8 hPa 2.0 m/s 9.5 mm
08:00 14.3° 1013.4 hPa 1.2 m/s 9.5 mm 14.3° 1013.4 hPa 1.2 m/s 9.5 mm
11:00 16.9° 1013.7 hPa 1.9 m/s 9.6 mm 16.9° 1013.7 hPa 1.9 m/s 9.6 mm
14:00 20.3° 1012.6 hPa 2.5 m/s 9.7 mm 20.3° 1012.6 hPa 2.5 m/s 9.7 mm
17:00 17.3° 1013.3 hPa 3.7 m/s 10.6 mm 17.3° 1013.3 hPa 3.7 m/s 10.6 mm
20:00 17.1° 1013.3 hPa 2.8 m/s 10.7 mm 17.1° 1013.3 hPa 2.8 m/s 10.7 mm
23:00 13.4° 1014.1 hPa 3.1 m/s 10.7 mm 13.4° 1014.1 hPa 3.1 m/s 10.7 mm
 05:50     20:54    Daglengte: 15:04 Donderdag 05 Aug
02:00 14.8° 1013.5 hPa 4.1 m/s 10.7 mm 14.8° 1013.5 hPa 4.1 m/s 10.7 mm
05:00 14.2° 1013.0 hPa 4.1 m/s 10.7 mm 14.2° 1013.0 hPa 4.1 m/s 10.7 mm
08:00 14.3° 1013.3 hPa 3.6 m/s 10.8 mm 14.3° 1013.3 hPa 3.6 m/s 10.8 mm
11:00 14.8° 1012.8 hPa 3.2 m/s 11.0 mm 14.8° 1012.8 hPa 3.2 m/s 11.0 mm
14:00 17.9° 1011.3 hPa 4.0 m/s 11.8 mm 17.9° 1011.3 hPa 4.0 m/s 11.8 mm
17:00 20.3° 1009.3 hPa 3.2 m/s 12.1 mm 20.3° 1009.3 hPa 3.2 m/s 12.1 mm
20:00 16.6° 1008.8 hPa 4.3 m/s 13.3 mm 16.6° 1008.8 hPa 4.3 m/s 13.3 mm
23:00 13.8° 1008.7 hPa 2.7 m/s 13.4 mm 13.8° 1008.7 hPa 2.7 m/s 13.4 mm
 05:52     20:53    Daglengte: 15:01 Vrijdag 06 Aug
02:00 13.4° 1008.3 hPa 3.1 m/s 13.4 mm 13.4° 1008.3 hPa 3.1 m/s 13.4 mm
05:00 13.7° 1006.9 hPa 3.5 m/s 13.5 mm 13.7° 1006.9 hPa 3.5 m/s 13.5 mm
08:00 14.3° 1006.4 hPa 5.0 m/s 14.1 mm 14.3° 1006.4 hPa 5.0 m/s 14.1 mm
11:00 15.8° 1006.4 hPa 6.1 m/s 14.5 mm 15.8° 1006.4 hPa 6.1 m/s 14.5 mm
14:00 17.0° 1006.2 hPa 5.5 m/s 15.2 mm 17.0° 1006.2 hPa 5.5 m/s 15.2 mm
17:00 18.4° 1006.0 hPa 8.4 m/s 16.1 mm 18.4° 1006.0 hPa 8.4 m/s 16.1 mm
20:00 15.5° 1006.8 hPa 6.6 m/s 16.3 mm 15.5° 1006.8 hPa 6.6 m/s 16.3 mm
23:00 15.6° 1007.8 hPa 7.1 m/s 16.4 mm 15.6° 1007.8 hPa 7.1 m/s 16.4 mm
 05:53     20:51    Daglengte: 14:58 Zaterdag 07 Aug
02:00 16.2° 1008.2 hPa 7.3 m/s 16.4 mm 16.2° 1008.2 hPa 7.3 m/s 16.4 mm
05:00 14.4° 1009.1 hPa 6.5 m/s 16.4 mm 14.4° 1009.1 hPa 6.5 m/s 16.4 mm
08:00 15.5° 1009.8 hPa 6.4 m/s 16.4 mm 15.5° 1009.8 hPa 6.4 m/s 16.4 mm
11:00 19.0° 1010.6 hPa 7.5 m/s 16.4 mm 19.0° 1010.6 hPa 7.5 m/s 16.4 mm
14:00 21.3° 1010.7 hPa 6.3 m/s 16.4 mm 21.3° 1010.7 hPa 6.3 m/s 16.4 mm
17:00 21.9° 1010.8 hPa 4.9 m/s 16.4 mm 21.9° 1010.8 hPa 4.9 m/s 16.4 mm
20:00 19.2° 1011.6 hPa 2.7 m/s 16.6 mm 19.2° 1011.6 hPa 2.7 m/s 16.6 mm
23:00 15.6° 1013.0 hPa 2.2 m/s 16.6 mm 15.6° 1013.0 hPa 2.2 m/s 16.6 mm
 05:55     20:49    Daglengte: 14:54 Zondag 08 Aug
02:00 15.2° 1012.8 hPa 1.6 m/s 16.6 mm 15.2° 1012.8 hPa 1.6 m/s 16.6 mm
08:00 17.6° 1011.8 hPa 1.9 m/s 16.6 mm 17.6° 1011.8 hPa 1.9 m/s 16.6 mm
14:00 21.9° 1012.6 hPa 4.1 m/s 16.7 mm 21.9° 1012.6 hPa 4.1 m/s 16.7 mm
20:00 20.6° 1014.3 hPa 4.8 m/s 17.0 mm 20.6° 1014.3 hPa 4.8 m/s 17.0 mm
 05:56     20:47    Daglengte: 14:51 Maandag 09 Aug
02:00 16.2° 1017.1 hPa 5.2 m/s 17.5 mm 16.2° 1017.1 hPa 5.2 m/s 17.5 mm
08:00 16.8° 1018.5 hPa 6.5 m/s 17.5 mm 16.8° 1018.5 hPa 6.5 m/s 17.5 mm
14:00 21.7° 1019.7 hPa 8.0 m/s 17.5 mm 21.7° 1019.7 hPa 8.0 m/s 17.5 mm
20:00 17.6° 1021.0 hPa 5.3 m/s 17.6 mm 17.6° 1021.0 hPa 5.3 m/s 17.6 mm
 05:58     20:46    Daglengte: 14:48 Dinsdag 10 Aug
02:00 14.7° 1022.7 hPa 4.9 m/s 17.6 mm 14.7° 1022.7 hPa 4.9 m/s 17.6 mm
08:00 15.2° 1022.8 hPa 4.7 m/s 17.6 mm 15.2° 1022.8 hPa 4.7 m/s 17.6 mm
14:00 20.4° 1022.3 hPa 5.2 m/s 17.7 mm 20.4° 1022.3 hPa 5.2 m/s 17.7 mm
20:00 19.2° 1018.6 hPa 1.7 m/s 1.2 mm
 05:59     20:44    Daglengte: 14:45 Woensdag 11 Aug
02:00 14.5° 1019.9 hPa 1.6 m/s 0.8 mm
08:00 15.6° 1020.2 hPa 1.9 m/s 0.4 mm
14:00 21.9° 1019.2 hPa 2.2 m/s 0.4 mm
20:00 19.0° 1018.5 hPa 1.3 m/s 1.2 mm
 06:01     20:42    Daglengte: 14:41 Donderdag 12 Aug
02:00 14.0° 1019.6 hPa 1.0 m/s 0.2 mm
08:00 15.2° 1019.8 hPa 1.4 m/s 0.1 mm
14:00 21.8° 1019.0 hPa 2.0 m/s 0.8 mm
20:00 19.0° 1018.5 hPa 1.3 m/s 0.6 mm
 06:02     20:40    Daglengte: 14:38 Vrijdag 13 Aug
02:00 14.7° 1019.3 hPa 1.6 m/s 0.3 mm
08:00 15.9° 1019.4 hPa 1.8 m/s 0.5 mm
14:00 22.5° 1018.8 hPa 2.1 m/s 0.6 mm
20:00 19.4° 1017.8 hPa 1.6 m/s 0.9 mm
 06:04     20:38    Daglengte: 14:34 Zaterdag 14 Aug
02:00 15.0° 1018.7 hPa 1.9 m/s 0.7 mm
08:00 15.9° 1018.8 hPa 2.1 m/s 0.5 mm
14:00 22.0° 1017.9 hPa 2.4 m/s 0.4 mm
20:00 19.4° 1017.2 hPa 1.5 m/s 0.7 mm
 06:05     20:36    Daglengte: 14:31 Zondag 15 Aug
02:00 15.1° 1018.0 hPa 1.8 m/s 0.5 mm
08:00 16.1° 1017.7 hPa 2.0 m/s 0.9 mm
14:00 21.4° 1016.7 hPa 2.4 m/s 0.7 mm
20:00 19.1° 1016.0 hPa 1.6 m/s 0.2 mm
FMI Hirlam - 7.5 km EWN WRFDA - 12 km DWD ICON - 7 km GFS - 25 km Basiskaart






























































Updatetijd (Europe/Amsterdam) Resolutie Lengte Stap
FMI Hirlam 19:00, 01:00, 07:00, 13:00 7.5 km 49h 1h
EWN WRFDA 22:15, 04:15, 10:15, 16:15 12 km 73h 1h
DWD ICON 23:45, 05:45, 11:45, 17:45 7 km 75h 1h
GFS 20:15, 02:15, 08:15, 14:15 25 km 237h 3h
30+ mm
25-30 mm
20-25 mm
15-20 mm
10-15 mm
6-10 mm
4-6 mm
2-4 mm
1-2 mm
0.5-1 mm
0.2-0.5 mm
0.1-0.2 mm
30+ mm
25-30 mm
20-25 mm
15-20 mm
10-15 mm
6-10 mm
4-6 mm
2-4 mm
1-2 mm
0.5-1 mm
0.2-0.5 mm
0.1-0.2 mm
Sneeuwval
Natte sneeuw
Hagel
Vorst
30+ mm
25-30 mm
20-25 mm
15-20 mm
10-15 mm
6-10 mm
4-6 mm
2-4 mm
1-2 mm
0.5-1 mm
0.2-0.5 mm
0.1-0.2 mm
Sneeuwval
Natte sneeuw
Hagel
Vorst
Onweer
50 mm
40 mm
30 mm
26 mm
22 mm
18 mm
14 mm
10 mm
9 mm
8 mm
7 mm
6 mm
5 mm
4.5 mm
4 mm
3.5 mm
3 mm
2.5 mm
2 mm
1.5 mm
1 mm
0.8 mm
0.6 mm
0.4 mm
0.2 mm
0.05 mm
35°
30°
25°
20°
15°
10°
-5°
-10°
-15°
-20°
-25°
-30°
-35°
33> m/s
29 m/s
25 m/s
21 m/s
17 m/s
14 m/s
11 m/s
8 m/s
5 m/s
3 m/s
0 m/s
2600 J/kg
2400 J/kg
2200 J/kg
2000 J/kg